Time,TemperatureF,DewpointF,PressureIn,WindDirection,WindDirectionDegrees,WindSpeedMPH,WindSpeedGustMPH,Humidity,HourlyPrecipIn,Conditions,Clouds,dailyrainin,SoftwareType,DateUTC
2013-07-04 00:04:00,65.8,38.2,29.85,South,180,0.0,0.0,36,0.00,,---,0.00,VWS V14.01,2013-07-04 07:04:00,
2013-07-04 00:09:00,66.2,39.2,29.85,SE,135,0.0,0.0,37,0.00,,---,0.00,VWS V14.01,2013-07-04 07:09:00,
2013-07-04 00:14:00,66.0,39.0,29.85,NE,45,0.0,0.0,37,0.00,,---,0.00,VWS V14.01,2013-07-04 07:14:00,
2013-07-04 00:19:00,65.8,40.2,29.85,SSE,158,0.0,0.0,39,0.00,,---,0.00,VWS V14.01,2013-07-04 07:19:00,
2013-07-04 00:24:00,65.5,39.9,29.85,SSE,158,0.0,0.0,39,0.00,,---,0.00,VWS V14.01,2013-07-04 07:24:00,
2013-07-04 00:29:00,64.9,39.4,29.85,SSE,158,0.0,0.0,39,0.00,,---,0.00,VWS V14.01,2013-07-04 07:29:00,
2013-07-04 00:34:00,64.8,40.5,29.85,South,180,0.0,0.0,41,0.00,,---,0.00,VWS V14.01,2013-07-04 07:34:00,
2013-07-04 00:39:00,64.4,40.2,29.85,South,180,0.0,0.0,41,0.00,,---,0.00,VWS V14.01,2013-07-04 07:39:00,
2013-07-04 00:44:00,64.2,40.7,29.85,SSW,202,0.0,0.0,42,0.00,,---,0.00,VWS V14.01,2013-07-04 07:44:00,
2013-07-04 00:49:00,64.2,41.9,29.88,SSW,202,0.0,0.0,44,0.00,,---,0.00,VWS V14.01,2013-07-04 07:49:00,
2013-07-04 00:54:00,63.5,41.2,29.88,SSW,202,0.0,0.0,44,0.00,,---,0.00,VWS V14.01,2013-07-04 07:54:00,
2013-07-04 00:59:00,63.3,41.6,29.88,SSW,202,0.0,0.0,45,0.00,,---,0.00,VWS V14.01,2013-07-04 07:59:00,
2013-07-04 01:04:00,62.8,41.2,29.85,SSW,202,0.0,0.0,45,0.00,,---,0.00,VWS V14.01,2013-07-04 08:04:00,
2013-07-04 01:09:00,62.6,41.0,29.85,SSW,202,0.0,0.0,45,0.00,,---,0.00,VWS V14.01,2013-07-04 08:09:00,
2013-07-04 01:14:00,62.6,41.0,29.85,South,180,0.0,0.0,45,0.00,,---,0.00,VWS V14.01,2013-07-04 08:14:00,
2013-07-04 01:19:00,62.4,40.8,29.85,South,180,0.0,0.0,45,0.00,,---,0.00,VWS V14.01,2013-07-04 08:19:00,
2013-07-04 01:24:00,62.2,41.2,29.85,North,0,0.0,0.0,46,0.00,,---,0.00,VWS V14.01,2013-07-04 08:24:00,
2013-07-04 01:29:00,62.2,41.8,29.85,North,0,0.0,0.0,47,0.00,,---,0.00,VWS V14.01,2013-07-04 08:29:00,
2013-07-04 01:34:00,62.8,42.3,29.88,North,0,0.0,0.0,47,0.00,,---,0.00,VWS V14.01,2013-07-04 08:34:00,
2013-07-04 01:39:00,63.0,41.9,29.88,NNW,338,0.0,0.0,46,0.00,,---,0.00,VWS V14.01,2013-07-04 08:39:00,
2013-07-04 01:44:00,63.0,42.4,29.88,North,0,0.0,0.0,47,0.00,,---,0.00,VWS V14.01,2013-07-04 08:44:00,
2013-07-04 01:49:00,62.8,42.3,29.88,North,0,0.0,0.0,47,0.00,,---,0.00,VWS V14.01,2013-07-04 08:49:00,
2013-07-04 01:54:00,62.6,42.1,29.88,SSW,202,0.0,0.0,47,0.00,,---,0.00,VWS V14.01,2013-07-04 08:54:00,
2013-07-04 01:59:00,62.1,42.2,29.88,SSW,202,0.0,0.0,48,0.00,,---,0.00,VWS V14.01,2013-07-04 08:59:00,
2013-07-04 02:04:00,61.7,42.4,29.88,South,180,0.0,0.0,49,0.00,,---,0.00,VWS V14.01,2013-07-04 09:04:00,
2013-07-04 02:09:00,61.3,42.0,29.88,South,180,0.0,0.0,49,0.00,,---,0.00,VWS V14.01,2013-07-04 09:09:00,
2013-07-04 02:14:00,61.0,41.7,29.88,South,180,0.0,0.0,49,0.00,,---,0.00,VWS V14.01,2013-07-04 09:14:00,
2013-07-04 02:19:00,60.6,41.9,29.88,South,180,0.0,0.0,50,0.00,,---,0.00,VWS V14.01,2013-07-04 09:19:00,
2013-07-04 02:24:00,60.4,41.2,29.88,SSW,202,0.0,0.0,49,0.00,,---,0.00,VWS V14.01,2013-07-04 09:24:00,
2013-07-04 02:29:00,60.1,41.4,29.88,SSW,202,0.0,0.0,50,0.00,,---,0.00,VWS V14.01,2013-07-04 09:29:00,
2013-07-04 02:34:00,59.9,41.2,29.88,SSW,202,0.0,0.0,50,0.00,,---,0.00,VWS V14.01,2013-07-04 09:34:00,
2013-07-04 02:39:00,59.7,41.1,29.88,SW,225,0.0,0.0,50,0.00,,---,0.00,VWS V14.01,2013-07-04 09:39:00,
2013-07-04 02:44:00,59.9,42.2,29.88,East,90,0.0,0.0,52,0.00,,---,0.00,VWS V14.01,2013-07-04 09:44:00,
2013-07-04 02:49:00,59.7,41.6,29.88,SW,225,0.0,0.0,51,0.00,,---,0.00,VWS V14.01,2013-07-04 09:49:00,
2013-07-04 02:54:00,59.9,42.2,29.88,NNE,22,1.1,1.1,52,0.00,,---,0.00,VWS V14.01,2013-07-04 09:54:00,
2013-07-04 02:59:00,60.1,42.4,29.88,SSE,158,0.0,0.0,52,0.00,,---,0.00,VWS V14.01,2013-07-04 09:59:00,
2013-07-04 03:04:00,60.3,42.6,29.88,SSW,202,1.6,1.6,52,0.00,,---,0.00,VWS V14.01,2013-07-04 10:04:00,
2013-07-04 03:10:00,60.6,42.9,29.88,NNE,22,0.9,0.9,52,0.00,,---,0.00,VWS V14.01,2013-07-04 10:10:00,
2013-07-04 03:15:00,62.1,43.2,29.88,NW,315,0.0,0.0,50,0.00,,---,0.00,VWS V14.01,2013-07-04 10:15:00,
2013-07-04 03:20:00,62.4,43.5,29.85,East,90,3.4,3.4,50,0.00,,---,0.00,VWS V14.01,2013-07-04 10:20:00,
2013-07-04 03:25:00,62.2,42.9,29.85,East,90,0.0,0.0,49,0.00,,---,0.00,VWS V14.01,2013-07-04 10:25:00,
2013-07-04 03:30:00,61.7,42.4,29.85,South,180,0.0,0.0,49,0.00,,---,0.00,VWS V14.01,2013-07-04 10:30:00,
2013-07-04 03:35:00,61.7,42.4,29.88,ENE,68,0.9,0.9,49,0.00,,---,0.00,VWS V14.01,2013-07-04 10:35:00,
2013-07-04 03:40:00,61.7,41.8,29.88,ESE,112,0.9,0.9,48,0.00,,---,0.00,VWS V14.01,2013-07-04 10:40:00,
2013-07-04 03:45:00,61.5,42.2,29.88,South,180,0.0,0.0,49,0.00,,---,0.00,VWS V14.01,2013-07-04 10:45:00,
2013-07-04 03:50:00,61.5,42.2,29.88,East,90,1.1,1.1,49,0.00,,---,0.00,VWS V14.01,2013-07-04 10:50:00,
2013-07-04 03:57:00,62.6,42.1,29.88,East,90,1.3,1.3,47,0.00,,---,0.00,VWS V14.01,2013-07-04 10:57:00,
2013-07-04 04:02:00,62.8,42.3,29.88,NNE,22,0.0,0.0,47,0.00,,---,0.00,VWS V14.01,2013-07-04 11:02:00,
2013-07-04 04:07:00,62.6,42.1,29.88,SW,225,0.0,0.0,47,0.00,,---,0.00,VWS V14.01,2013-07-04 11:07:00,
2013-07-04 04:12:00,62.4,41.9,29.88,North,0,0.0,0.0,47,0.00,,---,0.00,VWS V14.01,2013-07-04 11:12:00,
2013-07-04 04:17:00,62.4,41.4,29.88,WNW,292,2.9,2.9,46,0.00,,---,0.00,VWS V14.01,2013-07-04 11:17:00,
2013-07-04 04:22:00,63.0,41.3,29.88,East,90,0.9,0.9,45,0.00,,---,0.00,VWS V14.01,2013-07-04 11:22:00,
2013-07-04 04:27:00,63.1,41.5,29.88,West,270,0.0,0.0,45,0.00,,---,0.00,VWS V14.01,2013-07-04 11:27:00,
2013-07-04 04:32:00,63.7,40.8,29.88,NW,315,3.8,3.8,43,0.00,,---,0.00,VWS V14.01,2013-07-04 11:32:00,
2013-07-04 04:37:00,64.0,40.5,29.88,SW,225,5.8,5.8,42,0.00,,---,0.00,VWS V14.01,2013-07-04 11:37:00,
2013-07-04 04:42:00,64.9,38.1,29.88,ESE,112,2.5,2.5,37,0.00,,---,0.00,VWS V14.01,2013-07-04 11:42:00,
2013-07-04 04:47:00,65.8,38.2,29.88,West,270,0.9,0.9,36,0.00,,---,0.00,VWS V14.01,2013-07-04 11:47:00,
2013-07-04 04:52:00,66.0,38.3,29.88,NNE,22,4.9,4.9,36,0.00,,---,0.00,VWS V14.01,2013-07-04 11:52:00,
2013-07-04 04:57:00,66.2,38.5,29.88,SSW,202,4.3,4.3,36,0.00,,---,0.00,VWS V14.01,2013-07-04 11:57:00,
2013-07-04 05:02:00,66.2,37.8,29.91,SE,135,3.1,3.1,35,0.00,,---,0.00,VWS V14.01,2013-07-04 12:02:00,
2013-07-04 05:07:00,66.0,38.3,29.91,SSE,158,3.6,3.6,36,0.00,,---,0.00,VWS V14.01,2013-07-04 12:07:00,
2013-07-04 05:12:00,66.0,38.3,29.91,South,180,1.1,1.1,36,0.00,,---,0.00,VWS V14.01,2013-07-04 12:12:00,
2013-07-04 05:17:00,66.0,38.3,29.88,SW,225,2.7,2.7,36,0.00,,---,0.00,VWS V14.01,2013-07-04 12:17:00,
2013-07-04 05:22:00,66.2,38.5,29.88,South,180,2.7,2.7,36,0.00,,---,0.00,VWS V14.01,2013-07-04 12:22:00,
2013-07-04 05:27:00,66.2,38.5,29.88,SW,225,4.9,4.9,36,0.00,,---,0.00,VWS V14.01,2013-07-04 12:27:00,
2013-07-04 05:32:00,66.2,38.5,29.91,WSW,248,2.2,2.2,36,0.00,,---,0.00,VWS V14.01,2013-07-04 12:32:00,
2013-07-04 05:37:00,66.0,38.3,29.91,WSW,248,1.1,1.1,36,0.00,,---,0.00,VWS V14.01,2013-07-04 12:37:00,
2013-07-04 05:42:00,66.2,38.5,29.91,NNE,22,0.0,0.0,36,0.00,,---,0.00,VWS V14.01,2013-07-04 12:42:00,
2013-07-04 05:47:00,66.6,38.1,29.91,SSW,202,0.9,0.9,35,0.00,,---,0.00,VWS V14.01,2013-07-04 12:47:00,
2013-07-04 05:53:00,66.9,39.1,29.91,West,270,0.0,0.0,36,0.00,,---,0.00,VWS V14.01,2013-07-04 12:53:00,
2013-07-04 05:58:00,67.3,38.7,29.91,SE,135,2.0,2.0,35,0.00,,---,0.00,VWS V14.01,2013-07-04 12:58:00,
2013-07-04 06:03:00,67.3,38.7,29.91,ENE,68,0.0,0.0,35,0.00,,---,0.00,VWS V14.01,2013-07-04 13:03:00,
2013-07-04 06:08:00,67.3,38.0,29.91,SSW,202,3.1,3.1,34,0.00,,---,0.00,VWS V14.01,2013-07-04 13:08:00,
2013-07-04 06:13:00,67.5,38.1,29.91,SW,225,1.1,1.1,34,0.00,,---,0.00,VWS V14.01,2013-07-04 13:13:00,
2013-07-04 06:18:00,68.0,38.6,29.91,WSW,248,5.6,5.6,34,0.00,,---,0.00,VWS V14.01,2013-07-04 13:18:00,
2013-07-04 06:23:00,68.5,39.1,29.91,SW,225,0.0,0.0,34,0.00,,---,0.00,VWS V14.01,2013-07-04 13:23:00,
2013-07-04 06:28:00,69.3,39.7,29.91,NE,45,1.3,1.3,34,0.00,,---,0.00,VWS V14.01,2013-07-04 13:28:00,
2013-07-04 06:33:00,69.8,40.2,29.94,NNW,338,0.0,0.0,34,0.00,,---,0.00,VWS V14.01,2013-07-04 13:33:00,
2013-07-04 06:38:00,70.0,39.6,29.94,SSW,202,3.4,3.4,33,0.00,,---,0.00,VWS V14.01,2013-07-04 13:38:00,
2013-07-04 06:43:00,70.2,39.0,29.94,West,270,2.7,2.7,32,0.00,,---,0.00,VWS V14.01,2013-07-04 13:43:00,
2013-07-04 06:48:00,70.5,39.3,29.91,SW,225,2.7,2.7,32,0.00,,---,0.00,VWS V14.01,2013-07-04 13:48:00,
2013-07-04 06:53:00,70.5,39.3,29.91,South,180,2.5,2.5,32,0.00,,---,0.00,VWS V14.01,2013-07-04 13:53:00,
2013-07-04 06:58:00,70.5,39.3,29.91,SSW,202,2.7,2.7,32,0.00,,---,0.00,VWS V14.01,2013-07-04 13:58:00,
2013-07-04 07:03:00,70.5,39.3,29.94,SW,225,0.0,0.0,32,0.00,,---,0.00,VWS V14.01,2013-07-04 14:03:00,
2013-07-04 07:08:00,71.4,40.0,29.94,SW,225,2.2,2.2,32,0.00,,---,0.00,VWS V14.01,2013-07-04 14:08:00,
2013-07-04 07:13:00,71.2,39.9,29.94,SW,225,0.0,0.0,32,0.00,,---,0.00,VWS V14.01,2013-07-04 14:13:00,
2013-07-04 07:18:00,72.1,39.9,29.94,WSW,248,5.6,5.6,31,0.00,,---,0.00,VWS V14.01,2013-07-04 14:18:00,
2013-07-04 07:23:00,72.5,40.2,29.94,SSW,202,2.5,2.5,31,0.00,,---,0.00,VWS V14.01,2013-07-04 14:23:00,
2013-07-04 07:28:00,72.1,39.0,29.94,NW,315,0.9,0.9,30,0.00,,---,0.00,VWS V14.01,2013-07-04 14:28:00,
2013-07-04 07:33:00,73.0,39.8,29.94,SW,225,2.5,2.5,30,0.00,,---,0.00,VWS V14.01,2013-07-04 14:33:00,
2013-07-04 07:38:00,73.9,40.6,29.94,West,270,2.0,2.0,30,0.00,,---,0.00,VWS V14.01,2013-07-04 14:38:00,
2013-07-04 07:43:00,74.3,39.1,29.94,WNW,292,4.0,4.0,28,0.00,,---,0.00,VWS V14.01,2013-07-04 14:43:00,
2013-07-04 07:48:00,74.1,39.9,29.94,SSW,202,2.9,2.9,29,0.00,,---,0.00,VWS V14.01,2013-07-04 14:48:00,
2013-07-04 07:53:00,74.1,39.9,29.94,West,270,2.5,2.5,29,0.00,,---,0.00,VWS V14.01,2013-07-04 14:53:00,
2013-07-04 07:58:00,74.3,40.0,29.94,WSW,248,1.6,1.6,29,0.00,,---,0.00,VWS V14.01,2013-07-04 14:58:00,
2013-07-04 08:03:00,74.5,40.2,29.94,SW,225,1.6,1.6,29,0.00,,---,0.00,VWS V14.01,2013-07-04 15:03:00,
2013-07-04 08:08:00,74.7,39.4,29.94,SSW,202,3.1,3.1,28,0.00,,---,0.00,VWS V14.01,2013-07-04 15:08:00,
2013-07-04 08:13:00,75.7,41.3,29.94,WSW,248,2.9,2.9,29,0.00,,---,0.00,VWS V14.01,2013-07-04 15:13:00,
2013-07-04 08:18:00,75.7,40.3,29.94,West,270,2.2,2.2,28,0.00,,---,0.00,VWS V14.01,2013-07-04 15:18:00,
2013-07-04 08:23:00,75.6,40.2,29.94,NW,315,3.4,3.4,28,0.00,,---,0.00,VWS V14.01,2013-07-04 15:23:00,
2013-07-04 08:28:00,77.0,41.4,29.94,SW,225,2.0,2.0,28,0.00,,---,0.00,VWS V14.01,2013-07-04 15:28:00,
2013-07-04 08:33:00,78.1,41.4,29.94,WNW,292,2.0,2.0,27,0.00,,---,0.00,VWS V14.01,2013-07-04 15:33:00,
2013-07-04 08:38:00,77.9,41.3,29.94,West,270,0.0,0.0,27,0.00,,---,0.00,VWS V14.01,2013-07-04 15:38:00,
2013-07-04 08:43:00,77.9,40.3,29.94,WSW,248,2.0,2.0,26,0.00,,---,0.00,VWS V14.01,2013-07-04 15:43:00,
2013-07-04 08:48:00,79.3,42.5,29.91,SE,135,1.3,1.3,27,0.00,,---,0.00,VWS V14.01,2013-07-04 15:48:00,
2013-07-04 08:53:00,79.9,42.0,29.91,WSW,248,2.9,2.9,26,0.00,,---,0.00,VWS V14.01,2013-07-04 15:53:00,
2013-07-04 08:58:00,79.3,40.5,29.91,SE,135,4.9,4.9,25,0.00,,---,0.00,VWS V14.01,2013-07-04 15:58:00,
2013-07-04 09:03:00,79.3,41.5,29.94,WSW,248,2.0,2.0,26,0.00,,---,0.00,VWS V14.01,2013-07-04 16:03:00,
2013-07-04 09:08:00,79.7,40.8,29.94,SW,225,1.3,1.3,25,0.00,,---,0.00,VWS V14.01,2013-07-04 16:08:00,
2013-07-04 09:13:00,80.2,41.3,29.94,West,270,2.2,2.2,25,0.00,,---,0.00,VWS V14.01,2013-07-04 16:13:00,
2013-07-04 09:18:00,81.0,41.9,29.91,SSW,202,0.0,0.0,25,0.00,,---,0.00,VWS V14.01,2013-07-04 16:18:00,
2013-07-04 09:23:00,81.9,42.6,29.91,South,180,0.0,0.0,25,0.00,,---,0.00,VWS V14.01,2013-07-04 16:23:00,
2013-07-04 09:28:00,80.2,40.2,29.91,SW,225,4.7,4.7,24,0.00,,---,0.00,VWS V14.01,2013-07-04 16:28:00,
2013-07-04 09:33:00,79.2,39.3,29.91,SSW,202,3.6,3.6,24,0.00,,---,0.00,VWS V14.01,2013-07-04 16:33:00,
2013-07-04 09:38:00,80.1,41.1,29.91,SW,225,1.6,1.6,25,0.00,,---,0.00,VWS V14.01,2013-07-04 16:38:00,
2013-07-04 10:02:00,82.4,44.1,29.88,SW,225,0.0,0.0,26,0.00,,---,0.00,VWS V14.01,2013-07-04 17:02:00,
2013-07-04 10:07:00,82.6,44.3,29.88,WNW,292,2.0,2.0,26,0.00,,---,0.00,VWS V14.01,2013-07-04 17:07:00,
2013-07-04 10:12:00,82.6,43.2,29.88,SW,225,3.6,3.6,25,0.00,,---,0.00,VWS V14.01,2013-07-04 17:12:00,
2013-07-04 10:17:00,81.9,42.6,29.88,SW,225,1.3,1.3,25,0.00,,---,0.00,VWS V14.01,2013-07-04 17:17:00,
2013-07-04 10:22:00,82.4,43.1,29.88,SW,225,7.4,7.4,25,0.00,,---,0.00,VWS V14.01,2013-07-04 17:22:00,
2013-07-04 10:27:00,82.9,43.5,29.88,SW,225,3.1,3.1,25,0.00,,---,0.00,VWS V14.01,2013-07-04 17:27:00,
2013-07-04 10:32:00,83.8,44.3,29.85,WSW,248,2.9,2.9,25,0.00,,---,0.00,VWS V14.01,2013-07-04 17:32:00,
2013-07-04 10:37:00,85.1,44.3,29.85,SSW,202,1.3,1.3,24,0.00,,---,0.00,VWS V14.01,2013-07-04 17:37:00,
2013-07-04 10:42:00,83.7,43.1,29.85,ENE,68,0.0,0.0,24,0.00,,---,0.00,VWS V14.01,2013-07-04 17:42:00,
2013-07-04 10:47:00,83.3,41.7,29.88,SW,225,2.5,2.5,23,0.00,,---,0.00,VWS V14.01,2013-07-04 17:47:00,
2013-07-04 10:52:00,83.7,43.1,29.88,SW,225,4.0,4.0,24,0.00,,---,0.00,VWS V14.01,2013-07-04 17:52:00,
2013-07-04 10:57:00,82.9,42.5,29.88,WSW,248,4.3,4.3,24,0.00,,---,0.00,VWS V14.01,2013-07-04 17:57:00,
2013-07-04 11:02:00,84.2,42.4,29.85,WSW,248,3.1,3.1,23,0.00,,---,0.00,VWS V14.01,2013-07-04 18:02:00,
2013-07-04 11:07:00,84.2,42.4,29.85,SW,225,3.4,3.4,23,0.00,,---,0.00,VWS V14.01,2013-07-04 18:07:00,
2013-07-04 11:12:00,84.6,42.7,29.85,SW,225,5.6,5.6,23,0.00,,---,0.00,VWS V14.01,2013-07-04 18:12:00,
2013-07-04 11:17:00,83.3,41.7,29.88,WNW,292,4.9,4.9,23,0.00,,---,0.00,VWS V14.01,2013-07-04 18:17:00,
2013-07-04 11:22:00,84.4,42.6,29.88,West,270,4.0,4.0,23,0.00,,---,0.00,VWS V14.01,2013-07-04 18:22:00,
2013-07-04 11:27:00,84.4,41.4,29.88,South,180,5.4,5.4,22,0.00,,---,0.00,VWS V14.01,2013-07-04 18:27:00,
2013-07-04 11:32:00,83.5,41.8,29.88,SW,225,2.2,2.2,23,0.00,,---,0.00,VWS V14.01,2013-07-04 18:32:00,
2013-07-04 11:37:00,85.8,43.8,29.88,SW,225,2.5,2.5,23,0.00,,---,0.00,VWS V14.01,2013-07-04 18:37:00,
2013-07-04 11:42:00,85.3,42.2,29.88,WNW,292,0.0,0.0,22,0.00,,---,0.00,VWS V14.01,2013-07-04 18:42:00,
2013-07-04 11:47:00,85.3,42.2,29.88,SW,225,0.0,0.0,22,0.00,,---,0.00,VWS V14.01,2013-07-04 18:47:00,
2013-07-04 11:52:00,85.6,42.5,29.88,WSW,248,2.7,2.7,22,0.00,,---,0.00,VWS V14.01,2013-07-04 18:52:00,
2013-07-04 11:57:00,86.0,41.6,29.88,West,270,0.0,0.0,21,0.00,,---,0.00,VWS V14.01,2013-07-04 18:57:00,
2013-07-04 12:02:00,86.7,42.2,29.88,WSW,248,3.6,3.6,21,0.00,,---,0.00,VWS V14.01,2013-07-04 19:02:00,
2013-07-04 12:07:00,85.6,41.3,29.88,SW,225,5.8,5.8,21,0.00,,---,0.00,VWS V14.01,2013-07-04 19:07:00,
2013-07-04 12:12:00,85.8,41.4,29.88,WSW,248,6.3,6.3,21,0.00,,---,0.00,VWS V14.01,2013-07-04 19:12:00,
2013-07-04 12:17:00,84.9,40.7,29.88,SE,135,3.6,3.6,21,0.00,,---,0.00,VWS V14.01,2013-07-04 19:17:00,
2013-07-04 12:22:00,86.5,42.0,29.88,West,270,2.0,2.0,21,0.00,,---,0.00,VWS V14.01,2013-07-04 19:22:00,
2013-07-04 12:27:00,85.8,41.4,29.88,WNW,292,3.4,3.4,21,0.00,,---,0.00,VWS V14.01,2013-07-04 19:27:00,
2013-07-04 12:32:00,86.4,41.9,29.88,WSW,248,7.2,7.2,21,0.00,,---,0.00,VWS V14.01,2013-07-04 19:32:00,
2013-07-04 12:38:00,87.6,42.9,29.88,WSW,248,0.0,0.0,21,0.00,,---,0.00,VWS V14.01,2013-07-04 19:38:00,
2013-07-04 12:43:00,86.4,40.6,29.88,SSW,202,6.0,6.0,20,0.00,,---,0.00,VWS V14.01,2013-07-04 19:43:00,
2013-07-04 12:48:00,87.3,41.3,29.85,WSW,248,4.0,4.0,20,0.00,,---,0.00,VWS V14.01,2013-07-04 19:48:00,
2013-07-04 12:53:00,88.2,42.1,29.85,SE,135,7.2,7.2,20,0.00,,---,0.00,VWS V14.01,2013-07-04 19:53:00,
2013-07-04 12:58:00,88.9,41.3,29.85,SW,225,2.5,2.5,19,0.00,,---,0.00,VWS V14.01,2013-07-04 19:58:00,
2013-07-04 13:03:00,88.5,41.0,29.85,South,180,4.3,4.3,19,0.00,,---,0.00,VWS V14.01,2013-07-04 20:03:00,
2013-07-04 13:08:00,88.2,40.8,29.85,South,180,3.6,3.6,19,0.00,,---,0.00,VWS V14.01,2013-07-04 20:08:00,
2013-07-04 13:13:00,88.7,41.2,29.85,WSW,248,2.2,2.2,19,0.00,,---,0.00,VWS V14.01,2013-07-04 20:13:00,
2013-07-04 13:18:00,88.9,41.3,29.85,South,180,4.3,4.3,19,0.00,,---,0.00,VWS V14.01,2013-07-04 20:18:00,
2013-07-04 13:23:00,88.3,40.9,29.85,SW,225,7.2,7.2,19,0.00,,---,0.00,VWS V14.01,2013-07-04 20:23:00,
2013-07-04 13:28:00,88.5,41.0,29.85,NW,315,3.8,3.8,19,0.00,,---,0.00,VWS V14.01,2013-07-04 20:28:00,
2013-07-04 13:33:00,88.7,41.2,29.85,West,270,2.5,2.5,19,0.00,,---,0.00,VWS V14.01,2013-07-04 20:33:00,
2013-07-04 13:38:00,89.2,41.6,29.85,SW,225,2.7,2.7,19,0.00,,---,0.00,VWS V14.01,2013-07-04 20:38:00,
2013-07-04 13:43:00,89.8,40.7,29.85,WSW,248,2.9,2.9,18,0.00,,---,0.00,VWS V14.01,2013-07-04 20:43:00,
2013-07-04 13:48:00,88.5,41.0,29.82,NW,315,2.9,2.9,19,0.00,,---,0.00,VWS V14.01,2013-07-04 20:48:00,
2013-07-04 13:53:00,89.1,41.5,29.82,WSW,248,5.4,5.4,19,0.00,,---,0.00,VWS V14.01,2013-07-04 20:53:00,
2013-07-04 13:58:00,88.7,41.2,29.82,East,90,4.9,4.9,19,0.00,,---,0.00,VWS V14.01,2013-07-04 20:58:00,
2013-07-04 14:03:00,88.5,41.0,29.82,WSW,248,2.9,2.9,19,0.00,,---,0.00,VWS V14.01,2013-07-04 21:03:00,
2013-07-04 14:08:00,88.2,40.8,29.82,East,90,3.8,3.8,19,0.00,,---,0.00,VWS V14.01,2013-07-04 21:08:00,
2013-07-04 14:13:00,88.9,41.3,29.82,SW,225,3.8,3.8,19,0.00,,---,0.00,VWS V14.01,2013-07-04 21:13:00,
2013-07-04 14:18:00,88.3,39.5,29.79,WNW,292,3.6,3.6,18,0.00,,---,0.00,VWS V14.01,2013-07-04 21:18:00,
2013-07-04 14:23:00,89.1,40.1,29.79,SSE,158,4.0,4.0,18,0.00,,---,0.00,VWS V14.01,2013-07-04 21:23:00,
2013-07-04 14:28:00,87.8,39.1,29.79,WNW,292,2.7,2.7,18,0.00,,---,0.00,VWS V14.01,2013-07-04 21:28:00,
2013-07-04 14:33:00,89.1,40.1,29.82,West,270,1.3,1.3,18,0.00,,---,0.00,VWS V14.01,2013-07-04 21:33:00,
2013-07-04 14:38:00,89.8,40.7,29.82,West,270,2.2,2.2,18,0.00,,---,0.00,VWS V14.01,2013-07-04 21:38:00,
2013-07-04 14:43:00,88.9,39.9,29.82,WNW,292,0.9,0.9,18,0.00,,---,0.00,VWS V14.01,2013-07-04 21:43:00,
2013-07-04 14:48:00,89.1,40.1,29.82,SW,225,2.9,2.9,18,0.00,,---,0.00,VWS V14.01,2013-07-04 21:48:00,
2013-07-04 14:53:00,89.2,40.2,29.82,WSW,248,4.3,4.3,18,0.00,,---,0.00,VWS V14.01,2013-07-04 21:53:00,
2013-07-04 14:58:00,90.0,40.8,29.82,West,270,0.0,0.0,18,0.00,,---,0.00,VWS V14.01,2013-07-04 21:58:00,
2013-07-04 15:03:00,90.3,41.1,29.82,WNW,292,1.3,1.3,18,0.00,,---,0.00,VWS V14.01,2013-07-04 22:03:00,
2013-07-04 15:08:00,90.5,41.3,29.82,SW,225,2.7,2.7,18,0.00,,---,0.00,VWS V14.01,2013-07-04 22:08:00,
2013-07-04 15:13:00,89.8,40.7,29.82,ESE,112,3.1,3.1,18,0.00,,---,0.00,VWS V14.01,2013-07-04 22:13:00,
2013-07-04 15:18:00,90.0,40.8,29.82,WSW,248,4.3,4.3,18,0.00,,---,0.00,VWS V14.01,2013-07-04 22:18:00,
2013-07-04 15:23:00,89.6,40.5,29.82,WSW,248,2.5,2.5,18,0.00,,---,0.00,VWS V14.01,2013-07-04 22:23:00,
2013-07-04 15:28:00,90.1,41.0,29.82,NW,315,1.3,1.3,18,0.00,,---,0.00,VWS V14.01,2013-07-04 22:28:00,
2013-07-04 15:33:00,90.1,41.0,29.79,WNW,292,0.0,0.0,18,0.00,,---,0.00,VWS V14.01,2013-07-04 22:33:00,
2013-07-04 15:37:00,88.7,39.8,29.79,SW,225,3.1,3.1,18,0.00,,---,0.00,VWS V14.01,2013-07-04 22:37:00,
2013-07-04 15:42:00,89.1,40.1,29.79,WSW,248,2.5,2.5,18,0.00,,---,0.00,VWS V14.01,2013-07-04 22:42:00,
2013-07-04 15:47:00,88.9,39.9,29.79,SW,225,1.6,1.6,18,0.00,,---,0.00,VWS V14.01,2013-07-04 22:47:00,
2013-07-04 15:52:00,88.2,39.4,29.79,West,270,2.0,2.0,18,0.00,,---,0.00,VWS V14.01,2013-07-04 22:52:00,
2013-07-04 15:57:00,88.3,39.5,29.79,SSW,202,2.5,2.5,18,0.00,,---,0.00,VWS V14.01,2013-07-04 22:57:00,
2013-07-04 16:02:00,88.2,39.4,29.79,SSW,202,3.6,3.6,18,0.00,,---,0.00,VWS V14.01,2013-07-04 23:02:00,
2013-07-04 16:07:00,88.9,39.9,29.79,SSE,158,3.1,3.1,18,0.00,,---,0.00,VWS V14.01,2013-07-04 23:07:00,
2013-07-04 16:12:00,89.4,40.4,29.79,WNW,292,3.1,3.1,18,0.00,,---,0.00,VWS V14.01,2013-07-04 23:12:00,
2013-07-04 16:17:00,89.1,40.1,29.76,SSW,202,6.5,6.5,18,0.00,,---,0.00,VWS V14.01,2013-07-04 23:17:00,
2013-07-04 16:22:00,88.2,39.4,29.76,SE,135,6.0,6.0,18,0.00,,---,0.00,VWS V14.01,2013-07-04 23:22:00,
2013-07-04 16:28:00,88.5,39.7,29.76,SSW,202,0.0,0.0,18,0.00,,---,0.00,VWS V14.01,2013-07-04 23:28:00,
2013-07-04 16:33:00,88.3,39.5,29.76,SW,225,3.8,3.8,18,0.00,,---,0.00,VWS V14.01,2013-07-04 23:33:00,
2013-07-04 16:38:00,88.3,39.5,29.76,WSW,248,0.0,0.0,18,0.00,,---,0.00,VWS V14.01,2013-07-04 23:38:00,
2013-07-04 16:43:00,88.7,39.8,29.76,WSW,248,2.2,2.2,18,0.00,,---,0.00,VWS V14.01,2013-07-04 23:43:00,
2013-07-04 16:48:00,89.2,40.2,29.76,South,180,0.0,0.0,18,0.00,,---,0.00,VWS V14.01,2013-07-04 23:48:00,
2013-07-04 16:53:00,89.6,40.5,29.76,SW,225,0.0,0.0,18,0.00,,---,0.00,VWS V14.01,2013-07-04 23:53:00,
2013-07-04 16:58:00,88.3,39.5,29.76,West,270,2.0,2.0,18,0.00,,---,0.00,VWS V14.01,2013-07-04 23:58:00,
2013-07-04 17:03:00,88.3,39.5,29.76,NNW,338,2.9,2.9,18,0.00,,---,0.00,VWS V14.01,2013-07-05 00:03:00,
2013-07-04 17:08:00,88.7,39.8,29.76,WNW,292,0.0,0.0,18,0.00,,---,0.00,VWS V14.01,2013-07-05 00:08:00,
2013-07-04 17:13:00,89.4,40.4,29.76,NW,315,0.0,0.0,18,0.00,,---,0.00,VWS V14.01,2013-07-05 00:13:00,
2013-07-04 17:18:00,89.4,40.4,29.76,SW,225,3.4,3.4,18,0.00,,---,0.00,VWS V14.01,2013-07-05 00:18:00,
2013-07-04 17:23:00,88.7,39.8,29.76,SSW,202,5.6,5.6,18,0.00,,---,0.00,VWS V14.01,2013-07-05 00:23:00,
2013-07-04 17:28:00,88.2,39.4,29.76,WSW,248,0.0,0.0,18,0.00,,---,0.00,VWS V14.01,2013-07-05 00:28:00,
2013-07-04 17:33:00,88.0,39.2,29.76,WSW,248,0.0,0.0,18,0.00,,---,0.00,VWS V14.01,2013-07-05 00:33:00,
2013-07-04 17:38:00,88.0,39.2,29.76,WSW,248,2.0,2.0,18,0.00,,---,0.00,VWS V14.01,2013-07-05 00:38:00,
2013-07-04 17:43:00,87.6,38.9,29.76,NW,315,0.0,0.0,18,0.00,,---,0.00,VWS V14.01,2013-07-05 00:43:00,
2013-07-04 17:48:00,87.3,38.6,29.74,SW,225,0.0,0.0,18,0.00,,---,0.00,VWS V14.01,2013-07-05 00:48:00,
2013-07-04 17:53:00,87.3,38.6,29.74,WNW,292,0.0,0.0,18,0.00,,---,0.00,VWS V14.01,2013-07-05 00:53:00,
2013-07-04 17:58:00,86.7,38.2,29.74,SW,225,3.4,3.4,18,0.00,,---,0.00,VWS V14.01,2013-07-05 00:58:00,
2013-07-04 18:03:00,86.0,37.6,29.74,West,270,2.0,2.0,18,0.00,,---,0.00,VWS V14.01,2013-07-05 01:03:00,
2013-07-04 18:08:00,86.0,37.6,29.74,SW,225,1.6,1.6,18,0.00,,---,0.00,VWS V14.01,2013-07-05 01:08:00,
2013-07-04 18:13:00,85.8,37.5,29.74,WSW,248,3.1,3.1,18,0.00,,---,0.00,VWS V14.01,2013-07-05 01:13:00,
2013-07-04 18:18:00,85.6,37.3,29.74,WNW,292,2.5,2.5,18,0.00,,---,0.00,VWS V14.01,2013-07-05 01:18:00,
2013-07-04 18:23:00,85.8,37.5,29.74,SW,225,2.7,2.7,18,0.00,,---,0.00,VWS V14.01,2013-07-05 01:23:00,
2013-07-04 18:28:00,85.5,37.2,29.74,SW,225,0.0,0.0,18,0.00,,---,0.00,VWS V14.01,2013-07-05 01:28:00,
2013-07-04 18:33:00,85.5,37.2,29.74,West,270,0.0,0.0,18,0.00,,---,0.00,VWS V14.01,2013-07-05 01:33:00,
2013-07-04 18:38:00,85.6,37.3,29.74,SW,225,1.1,1.1,18,0.00,,---,0.00,VWS V14.01,2013-07-05 01:38:00,
2013-07-04 18:43:00,85.1,36.9,29.74,WSW,248,0.0,0.0,18,0.00,,---,0.00,VWS V14.01,2013-07-05 01:43:00,
2013-07-04 18:48:00,84.9,36.7,29.74,WNW,292,1.1,1.1,18,0.00,,---,0.00,VWS V14.01,2013-07-05 01:48:00,
2013-07-04 18:53:00,84.4,36.3,29.74,SW,225,0.0,0.0,18,0.00,,---,0.00,VWS V14.01,2013-07-05 01:53:00,
2013-07-04 18:58:00,84.2,36.2,29.74,SW,225,0.0,0.0,18,0.00,,---,0.00,VWS V14.01,2013-07-05 01:58:00,
2013-07-04 19:03:00,84.0,37.4,29.74,WSW,248,1.3,1.3,19,0.00,,---,0.00,VWS V14.01,2013-07-05 02:03:00,
2013-07-04 19:08:00,83.8,37.2,29.74,WSW,248,3.4,3.4,19,0.00,,---,0.00,VWS V14.01,2013-07-05 02:08:00,
2013-07-04 19:13:00,83.5,36.9,29.74,WSW,248,1.3,1.3,19,0.00,,---,0.00,VWS V14.01,2013-07-05 02:13:00,
2013-07-04 19:18:00,83.5,36.9,29.74,SW,225,1.6,1.6,19,0.00,,---,0.00,VWS V14.01,2013-07-05 02:18:00,
2013-07-04 19:23:00,83.1,36.6,29.74,WNW,292,3.1,3.1,19,0.00,,---,0.00,VWS V14.01,2013-07-05 02:23:00,
2013-07-04 19:28:00,82.8,36.3,29.74,SW,225,1.1,1.1,19,0.00,,---,0.00,VWS V14.01,2013-07-05 02:28:00,
2013-07-04 19:33:00,82.6,36.2,29.74,South,180,3.1,3.1,19,0.00,,---,0.00,VWS V14.01,2013-07-05 02:33:00,
2013-07-04 19:38:00,82.4,36.0,29.74,SW,225,2.0,2.0,19,0.00,,---,0.00,VWS V14.01,2013-07-05 02:38:00,
2013-07-04 19:43:00,81.9,35.6,29.74,SW,225,2.2,2.2,19,0.00,,---,0.00,VWS V14.01,2013-07-05 02:43:00,
2013-07-04 19:48:00,81.5,35.3,29.74,WSW,248,2.5,2.5,19,0.00,,---,0.00,VWS V14.01,2013-07-05 02:48:00,
2013-07-04 19:53:00,81.3,35.2,29.74,WSW,248,1.6,1.6,19,0.00,,---,0.00,VWS V14.01,2013-07-05 02:53:00,
2013-07-04 19:58:00,81.0,34.9,29.74,WSW,248,1.3,1.3,19,0.00,,---,0.00,VWS V14.01,2013-07-05 02:58:00,
2013-07-04 20:03:00,80.4,35.7,29.74,SW,225,0.0,0.0,20,0.00,,---,0.00,VWS V14.01,2013-07-05 03:03:00,
2013-07-04 20:08:00,79.7,35.1,29.74,WSW,248,1.1,1.1,20,0.00,,---,0.00,VWS V14.01,2013-07-05 03:08:00,
2013-07-04 20:13:00,79.2,34.7,29.74,SW,225,0.0,0.0,20,0.00,,---,0.00,VWS V14.01,2013-07-05 03:13:00,
2013-07-04 20:18:00,78.8,34.4,29.74,WSW,248,0.0,0.0,20,0.00,,---,0.00,VWS V14.01,2013-07-05 03:18:00,
2013-07-04 20:24:00,78.3,33.9,29.74,SW,225,0.0,0.0,20,0.00,,---,0.00,VWS V14.01,2013-07-05 03:24:00,
2013-07-04 20:29:00,77.9,33.6,29.74,SW,225,1.3,1.3,20,0.00,,---,0.00,VWS V14.01,2013-07-05 03:29:00,
2013-07-04 20:34:00,77.4,34.4,29.74,SW,225,0.0,0.0,21,0.00,,---,0.00,VWS V14.01,2013-07-05 03:34:00,
2013-07-04 20:39:00,76.8,34.0,29.74,SSW,202,0.0,0.0,21,0.00,,---,0.00,VWS V14.01,2013-07-05 03:39:00,
2013-07-04 20:44:00,76.5,33.7,29.74,SSW,202,0.0,0.0,21,0.00,,---,0.00,VWS V14.01,2013-07-05 03:44:00,
2013-07-04 20:49:00,75.6,32.9,29.74,SSW,202,0.0,0.0,21,0.00,,---,0.00,VWS V14.01,2013-07-05 03:49:00,
2013-07-04 20:54:00,75.0,33.6,29.74,SSW,202,0.0,0.0,22,0.00,,---,0.00,VWS V14.01,2013-07-05 03:54:00,
2013-07-04 20:59:00,74.3,33.0,29.74,SSW,202,0.0,0.0,22,0.00,,---,0.00,VWS V14.01,2013-07-05 03:59:00,
2013-07-04 21:01:00,73.9,33.8,29.74,SSW,202,2.0,2.0,23,0.00,,---,0.00,VWS V14.01,2013-07-05 04:01:00,
2013-07-04 21:02:00,73.8,33.7,29.76,SSW,202,0.0,0.0,23,0.00,,---,0.00,VWS V14.01,2013-07-05 04:02:00,
2013-07-04 21:07:00,73.2,33.2,29.76,SSW,202,0.0,0.0,23,0.00,,---,0.00,VWS V14.01,2013-07-05 04:07:00,
2013-07-04 21:08:00,73.0,34.1,29.76,SSW,202,0.0,0.0,24,0.00,,---,0.00,VWS V14.01,2013-07-05 04:08:00,
2013-07-04 21:09:00,72.7,33.8,29.76,SSW,202,0.0,0.0,24,0.00,,---,0.00,VWS V14.01,2013-07-05 04:09:00,
2013-07-04 21:10:00,72.5,33.7,29.76,SSW,202,0.0,0.0,24,0.00,,---,0.00,VWS V14.01,2013-07-05 04:10:00,
2013-07-04 21:15:00,72.0,34.2,29.76,SSW,202,0.0,0.0,25,0.00,,---,0.00,VWS V14.01,2013-07-05 04:15:00,
2013-07-04 21:20:00,71.6,34.0,29.76,SSW,202,0.0,0.0,25,0.00,,---,0.00,VWS V14.01,2013-07-05 04:20:00,
2013-07-04 21:25:00,71.8,35.1,29.76,SSW,202,0.0,0.0,26,0.00,,---,0.00,VWS V14.01,2013-07-05 04:25:00,
2013-07-04 21:30:00,71.6,34.9,29.76,SSW,202,0.0,0.0,26,0.00,,---,0.00,VWS V14.01,2013-07-05 04:30:00,
2013-07-04 21:35:00,71.6,34.0,29.76,SW,225,0.0,0.0,25,0.00,,---,0.00,VWS V14.01,2013-07-05 04:35:00,
2013-07-04 21:40:00,71.6,34.9,29.76,SSW,202,0.0,0.0,26,0.00,,---,0.00,VWS V14.01,2013-07-05 04:40:00,
2013-07-04 21:45:00,71.4,34.8,29.76,SSW,202,1.1,1.1,26,0.00,,---,0.00,VWS V14.01,2013-07-05 04:45:00,
2013-07-04 21:50:00,71.8,34.1,29.79,SW,225,0.0,0.0,25,0.00,,---,0.00,VWS V14.01,2013-07-05 04:50:00,
2013-07-04 21:55:00,71.8,34.1,29.79,SW,225,2.9,2.9,25,0.00,,---,0.00,VWS V14.01,2013-07-05 04:55:00,
2013-07-04 22:00:00,72.0,34.2,29.79,SW,225,0.0,0.0,25,0.00,,---,0.00,VWS V14.01,2013-07-05 05:00:00,
2013-07-04 22:05:00,71.8,34.1,29.76,WSW,248,1.6,1.6,25,0.00,,---,0.00,VWS V14.01,2013-07-05 05:05:00,
2013-07-04 22:10:00,71.8,34.1,29.76,SW,225,0.0,0.0,25,0.00,,---,0.00,VWS V14.01,2013-07-05 05:10:00,
2013-07-04 22:15:00,71.8,34.1,29.76,SW,225,0.0,0.0,25,0.00,,---,0.00,VWS V14.01,2013-07-05 05:15:00,
2013-07-04 22:20:00,71.8,34.1,29.76,SW,225,0.0,0.0,25,0.00,,---,0.00,VWS V14.01,2013-07-05 05:20:00,
2013-07-04 22:25:00,71.4,33.8,29.76,WSW,248,0.0,0.0,25,0.00,,---,0.00,VWS V14.01,2013-07-05 05:25:00,
2013-07-04 22:30:00,71.1,33.5,29.76,WSW,248,0.0,0.0,25,0.00,,---,0.00,VWS V14.01,2013-07-05 05:30:00,
2013-07-04 22:35:00,70.7,33.2,29.76,WNW,292,0.0,0.0,25,0.00,,---,0.59,VWS V14.01,2013-07-05 05:35:00,
2013-07-04 22:40:00,70.3,32.9,29.76,West,270,0.0,0.0,25,0.00,,---,0.59,VWS V14.01,2013-07-05 05:40:00,
2013-07-04 22:45:00,70.2,32.7,29.76,WSW,248,0.0,0.0,25,0.00,,---,0.59,VWS V14.01,2013-07-05 05:45:00,
2013-07-04 22:50:00,70.3,32.9,29.76,WSW,248,1.6,1.6,25,0.00,,---,0.59,VWS V14.01,2013-07-05 05:50:00,
2013-07-04 22:55:00,70.3,32.9,29.76,WSW,248,0.0,0.0,25,0.00,,---,0.59,VWS V14.01,2013-07-05 05:55:00,
2013-07-04 23:00:00,70.3,32.9,29.76,West,270,0.0,0.0,25,0.00,,---,0.59,VWS V14.01,2013-07-05 06:00:00,
2013-07-04 23:05:00,70.0,32.6,29.74,SW,225,0.0,0.0,25,0.00,,---,0.59,VWS V14.01,2013-07-05 06:05:00,
2013-07-04 23:10:00,70.3,32.9,29.74,NW,315,1.1,1.1,25,0.00,,---,0.59,VWS V14.01,2013-07-05 06:10:00,
2013-07-04 23:15:00,70.3,32.9,29.74,WSW,248,1.1,1.1,25,0.00,,---,0.59,VWS V14.01,2013-07-05 06:15:00,
2013-07-04 23:20:00,70.3,32.9,29.76,SW,225,2.7,2.7,25,0.00,,---,0.59,VWS V14.01,2013-07-05 06:20:00,
2013-07-04 23:25:00,70.7,33.2,29.76,WSW,248,0.0,0.0,25,0.00,,---,0.59,VWS V14.01,2013-07-05 06:25:00,
2013-07-04 23:30:00,70.2,32.7,29.76,NW,315,0.0,0.0,25,0.00,,---,0.59,VWS V14.01,2013-07-05 06:30:00,
2013-07-04 23:35:00,69.8,33.4,29.76,NW,315,0.0,0.0,26,0.00,,---,0.59,VWS V14.01,2013-07-05 06:35:00,
2013-07-04 23:40:00,69.6,33.2,29.76,NW,315,0.0,0.0,26,0.00,,---,0.59,VWS V14.01,2013-07-05 06:40:00,
2013-07-04 23:45:00,69.3,32.9,29.76,NW,315,0.0,0.0,26,0.00,,---,0.59,VWS V14.01,2013-07-05 06:45:00,
2013-07-04 23:50:00,69.3,32.9,29.76,NW,315,0.0,0.0,26,0.00,,---,0.59,VWS V14.01,2013-07-05 06:50:00,
2013-07-04 23:55:00,69.1,32.8,29.76,NW,315,0.0,0.0,26,0.00,,---,0.59,VWS V14.01,2013-07-05 06:55:00,